Location: Gazon
(48.1318°N, 1.2708°W)
Time: 02:10:13
(UTC+00:00)

Okean 1 Rocket - Pass Details

Date: 18 September 2020
Orbit: 605 x 635 km, 82.5° (Epoch: 29 October)

Event Time Altitude Azimuth Distance (km) Brightness Sun altitude
Exits shadow 19:51:19 33° 98° (E) 1,084 3.8 -17.2°
Maximum altitude 19:51:36 33° 90° (E) 1,077 3.8 -17.2°
Drops below altitude 10° 19:55:38 10° 27° (NNE) 2,034 5.7 -17.8°
Sets 19:58:03 0° 18° (NNE) 2,947 6.6 -18.2°
